When you browse on this site, cookies collect data to enhance your experience and personalize the content and advertising you see.
Visit our Privacy Policy to learn more. By continuing to use the site, you agree to this use of cookies and data.

Meteo pe oră la Iokogama

Astăzi, 14 Iulie, Marţi

Timp Temperatura Precipitaţii Vânt Presiune Umiditate
00:00 +23°C° 0.1 mm 4 m/s 753 mmHg 85%
01:00 +23°C° 0.1 mm 5 m/s 752 mmHg 85%
02:00 +23°C° 0.1 mm 5 m/s 752 mmHg 85%
03:00 +23°C° 0 mm 5 m/s 751 mmHg 87%
04:00 +23°C° 0.9 mm 6 m/s 751 mmHg 88%
05:00 +23°C° 0.9 mm 7 m/s 751 mmHg 89%
06:00 +23°C° 0.9 mm 7 m/s 751 mmHg 91%
07:00 +24°C° 1.8 mm 7 m/s 751 mmHg 90%
08:00 +24°C° 1.8 mm 8 m/s 750 mmHg 89%
09:00 +26°C° 0 mm 6 m/s 750 mmHg 85%
10:00 +26°C° 0.6 mm 7 m/s 750 mmHg 85%
11:00 +26°C° 0.6 mm 7 m/s 749 mmHg 84%
12:00 +26°C° 0.6 mm 8 m/s 749 mmHg 84%
13:00 +27°C° 0.1 mm 8 m/s 749 mmHg 78%
14:00 +28°C° 0.1 mm 8 m/s 748 mmHg 72%
15:00 +29°C° 0 mm 4 m/s 748 mmHg 70%
16:00 +29°C° 0 mm 5 m/s 747 mmHg 71%
17:00 +29°C° 0 mm 5 m/s 747 mmHg 71%
18:00 +28°C° 0 mm 6 m/s 747 mmHg 72%
19:00 +28°C° 0 mm 6 m/s 747 mmHg 75%
20:00 +27°C° 0 mm 6 m/s 747 mmHg 78%
21:00 +27°C° 0 mm 6 m/s 747 mmHg 81%
22:00 +27°C° 0 mm 5 m/s 746 mmHg 82%
23:00 +26°C° 0 mm 4 m/s 746 mmHg 83%

Mâine, 15 Iulie, Miercuri

Timp Temperatura Precipitaţii Vânt Presiune Umiditate
00:00 +26°C° 0 mm 4 m/s 746 mmHg 83%
01:00 +26°C° 0 mm 3 m/s 746 mmHg 84%
02:00 +26°C° 0 mm 3 m/s 746 mmHg 85%
03:00 +26°C° 0 mm 3 m/s 745 mmHg 86%
04:00 +25°C° 0 mm 3 m/s 745 mmHg 86%
05:00 +25°C° 0 mm 4 m/s 746 mmHg 87%
06:00 +25°C° 0 mm 5 m/s 746 mmHg 87%
07:00 +25°C° 0.1 mm 4 m/s 746 mmHg 87%
08:00 +25°C° 0.1 mm 4 m/s 747 mmHg 86%
09:00 +25°C° 0.1 mm 4 m/s 747 mmHg 85%
10:00 +25°C° 0.1 mm 4 m/s 747 mmHg 84%
11:00 +25°C° 0.1 mm 4 m/s 747 mmHg 82%
12:00 +25°C° 0.1 mm 4 m/s 747 mmHg 81%
13:00 +25°C° 0.2 mm 4 m/s 747 mmHg 82%
14:00 +25°C° 0.2 mm 4 m/s 747 mmHg 83%
15:00 +23°C° 0.2 mm 4 m/s 747 mmHg 84%
16:00 +23°C° 0.6 mm 4 m/s 747 mmHg 86%
17:00 +24°C° 0.6 mm 3 m/s 748 mmHg 87%
18:00 +22°C° 0.6 mm 3 m/s 748 mmHg 89%
19:00 +22°C° 0.7 mm 3 m/s 748 mmHg 89%
20:00 +22°C° 0.7 mm 3 m/s 749 mmHg 89%
21:00 +22°C° 0.7 mm 3 m/s 749 mmHg 90%
22:00 +22°C° 0.2 mm 3 m/s 749 mmHg 90%
23:00 +22°C° 0.2 mm 3 m/s 749 mmHg 90%

Poimâine, 16 Iulie, Joi

Timp Temperatura Precipitaţii Vânt Presiune Umiditate
00:00 +22°C° 0.2 mm 3 m/s 749 mmHg 90%
01:00 +22°C° 0.1 mm 3 m/s 749 mmHg 90%
02:00 +22°C° 0.1 mm 3 m/s 749 mmHg 90%
03:00 +22°C° 0.1 mm 3 m/s 749 mmHg 89%
04:00 +22°C° 0 mm 3 m/s 749 mmHg 89%
05:00 +22°C° 0 mm 3 m/s 750 mmHg 88%
06:00 +22°C° 0 mm 3 m/s 750 mmHg 88%
07:00 +24°C° 0 mm 3 m/s 750 mmHg 85%
08:00 +24°C° 0 mm 3 m/s 750 mmHg 82%
09:00 +25°C° 0 mm 3 m/s 750 mmHg 79%
10:00 +26°C° 0 mm 2 m/s 751 mmHg 74%
11:00 +27°C° 0 mm 2 m/s 751 mmHg 70%
12:00 +28°C° 0 mm 2 m/s 751 mmHg 65%
13:00 +28°C° 0 mm 2 m/s 751 mmHg 64%
14:00 +29°C° 0 mm 3 m/s 750 mmHg 63%
15:00 +29°C° 0 mm 3 m/s 750 mmHg 62%
16:00 +28°C° 0 mm 3 m/s 751 mmHg 65%
17:00 +28°C° 0 mm 3 m/s 751 mmHg 68%
18:00 +27°C° 0 mm 4 m/s 751 mmHg 72%
19:00 +27°C° 0 mm 3 m/s 752 mmHg 74%
20:00 +26°C° 0 mm 2 m/s 752 mmHg 76%
21:00 +26°C° 0 mm 2 m/s 752 mmHg 78%
22:00 +26°C° 0 mm 2 m/s 752 mmHg 80%
23:00 +25°C° 0 mm 1 m/s 752 mmHg 81%

17 Iulie, Vineri

Timp Temperatura Precipitaţii Vânt Presiune Umiditate
00:00 +25°C° 0 mm 1 m/s 752 mmHg 82%
01:00 +25°C° 0.1 mm 1 m/s 752 mmHg 84%
02:00 +25°C° 0.1 mm 1 m/s 752 mmHg 85%
03:00 +25°C° 0.1 mm 1 m/s 752 mmHg 86%
04:00 +25°C° 2.8 mm 2 m/s 752 mmHg 88%
05:00 +25°C° 2.8 mm 3 m/s 752 mmHg 90%
06:00 +23°C° 2.8 mm 4 m/s 752 mmHg 92%
07:00 +23°C° 3.2 mm 4 m/s 752 mmHg 91%
08:00 +25°C° 3.2 mm 5 m/s 752 mmHg 91%
09:00 +24°C° 3.2 mm 6 m/s 752 mmHg 90%
10:00 +25°C° 1.6 mm 5 m/s 752 mmHg 89%
11:00 +25°C° 1.6 mm 5 m/s 752 mmHg 87%
12:00 +25°C° 1.6 mm 5 m/s 752 mmHg 86%
13:00 +25°C° 3.5 mm 5 m/s 752 mmHg 88%
14:00 +25°C° 3.5 mm 4 m/s 752 mmHg 90%
15:00 +25°C° 3.5 mm 4 m/s 752 mmHg 91%
16:00 +25°C° 0.6 mm 3 m/s 753 mmHg 91%
17:00 +25°C° 0.6 mm 2 m/s 754 mmHg 91%
18:00 +25°C° 0.6 mm 1 m/s 754 mmHg 90%
19:00 +25°C° 0.4 mm 1 m/s 755 mmHg 91%
20:00 +25°C° 0.4 mm 1 m/s 755 mmHg 91%
21:00 +25°C° 0.4 mm 2 m/s 755 mmHg 91%
22:00 +25°C° 3.4 mm 2 m/s 755 mmHg 93%
23:00 +25°C° 3.4 mm 3 m/s 755 mmHg 94%

18 Iulie, Sâmbătă

Timp Temperatura Precipitaţii Vânt Presiune Umiditate
00:00 +24°C° 3.4 mm 3 m/s 755 mmHg 96%
01:00 +25°C° 11.6 mm 3 m/s 754 mmHg 96%
02:00 +25°C° 11.6 mm 3 m/s 754 mmHg 96%
03:00 +25°C° 11.6 mm 3 m/s 753 mmHg 97%
04:00 +25°C° 9.5 mm 3 m/s 754 mmHg 95%
05:00 +25°C° 9.5 mm 4 m/s 754 mmHg 93%
06:00 +25°C° 9.5 mm 4 m/s 754 mmHg 91%
07:00 +26°C° 0.4 mm 3 m/s 754 mmHg 88%
08:00 +27°C° 0.4 mm 2 m/s 754 mmHg 84%
09:00 +27°C° 0.4 mm 1 m/s 754 mmHg 80%
10:00 +28°C° 0.6 mm 3 m/s 754 mmHg 80%
11:00 +28°C° 0.6 mm 4 m/s 754 mmHg 80%
12:00 +29°C° 0.6 mm 6 m/s 754 mmHg 80%
13:00 +29°C° 2.2 mm 7 m/s 754 mmHg 79%
14:00 +29°C° 2.2 mm 7 m/s 754 mmHg 78%
15:00 +29°C° 2.2 mm 8 m/s 754 mmHg 77%
16:00 +28°C° 1.2 mm 8 m/s 754 mmHg 79%
17:00 +28°C° 1.2 mm 8 m/s 755 mmHg 81%
18:00 +27°C° 1.2 mm 8 m/s 755 mmHg 83%
19:00 +27°C° 0.7 mm 8 m/s 755 mmHg 84%
20:00 +27°C° 0.7 mm 7 m/s 756 mmHg 85%
21:00 +26°C° 0.7 mm 7 m/s 756 mmHg 86%
22:00 +26°C° 0.5 mm 7 m/s 756 mmHg 85%
23:00 +26°C° 0.5 mm 6 m/s 755 mmHg 85%

19 Iulie, Duminică

Timp Temperatura Precipitaţii Vânt Presiune Umiditate
00:00 +26°C° 0.5 mm 6 m/s 755 mmHg 84%
01:00 +26°C° 1.2 mm 5 m/s 755 mmHg 86%
02:00 +25°C° 1.2 mm 4 m/s 754 mmHg 89%
03:00 +25°C° 1.2 mm 3 m/s 754 mmHg 91%
04:00 +25°C° 5.2 mm 5 m/s 754 mmHg 92%
05:00 +24°C° 5.2 mm 8 m/s 754 mmHg 94%
06:00 +24°C° 5.2 mm 10 m/s 753 mmHg 96%
07:00 +24°C° 3.4 mm 9 m/s 753 mmHg 94%
08:00 +26°C° 3.4 mm 8 m/s 753 mmHg 92%
09:00 +26°C° 3.4 mm 8 m/s 753 mmHg 90%
10:00 +27°C° 0.4 mm 7 m/s 753 mmHg 85%
11:00 +28°C° 0.4 mm 6 m/s 753 mmHg 81%
12:00 +28°C° 0.4 mm 5 m/s 753 mmHg 77%
13:00 +29°C° 0 mm 4 m/s 753 mmHg 76%
14:00 +29°C° 0 mm 4 m/s 753 mmHg 75%
15:00 +29°C° 0 mm 3 m/s 753 mmHg 75%
16:00 +29°C° 0 mm 4 m/s 754 mmHg 76%
17:00 +29°C° 0 mm 5 m/s 754 mmHg 77%
18:00 +28°C° 0 mm 5 m/s 754 mmHg 78%
19:00 +28°C° 0 mm 5 m/s 754 mmHg 78%
20:00 +28°C° 0 mm 5 m/s 755 mmHg 79%
21:00 +28°C° 0 mm 5 m/s 755 mmHg 79%
22:00 +27°C° 0 mm 4 m/s 755 mmHg 79%
23:00 +27°C° 0 mm 4 m/s 755 mmHg 79%
Arată mai mult